Location: Banios
(43.0451°N, 0.2335°E)
Time: 08:40:22
(UTC+00:00)

Cosmos 1937 Rocket - Visible Passes

Search period start: 09 May 2021 00:00
Search period end: 19 May 2021 00:00
Orbit: 747 x 780 km, 74.0° (Epoch: 08 May)

Date Brightness Start Highest point End Pass type
(mag) Time Alt. Az. Time Alt. Az. Time Alt. Az.
09 May 5.4 21:45:55 15° ENE 21:45:55 15° ENE 21:47:34 10° ENE visible
09 May 3.8 23:26:03 59° NW 23:26:03 59° NW 23:30:53 10° NNE visible
10 May 3.5 22:47:48 70° NE 22:47:48 70° NE 22:52:28 10° NNE visible
11 May 5.8 00:27:56 13° WNW 00:29:55 15° NW 00:32:55 10° NNW visible
11 May 4.0 22:09:31 42° E 22:09:31 42° E 22:13:49 10° NNE visible
11 May 5.2 23:49:39 22° W 23:51:05 24° WNW 23:55:17 10° N visible
12 May 4.7 21:31:11 25° E 21:31:11 25° E 21:34:52 10° NE visible
12 May 4.5 23:11:18 36° W 23:12:23 40° WNW 23:17:16 10° N visible
13 May 5.2 20:52:46 14° E 20:52:46 14° E 20:55:14 10° ENE visible
13 May 3.6 22:32:52 56° SW 22:33:49 69° WNW 22:39:00 10° NNE visible
14 May 6.2 00:15:42 10° WNW 00:16:49 11° NW 00:17:57 10° NW visible
14 May 3.4 21:54:22 54° SSE 21:55:23 69° ESE 22:00:32 10° NNE visible
14 May 5.9 23:34:31 10° W 23:37:53 17° NW 23:41:17 10° NNW visible
15 May 4.0 21:15:45 33° SE 21:17:03 38° ESE 21:21:49 10° NE visible
15 May 5.2 22:55:50 15° WSW 22:59:05 28° WNW 23:03:32 10° N visible
16 May 4.7 20:37:00 18° SE 20:38:50 22° E 20:42:45 10° NE visible
16 May 4.4 22:17:05 19° SW 22:20:26 46° WNW 22:25:26 10° N visible
17 May 5.3 19:58:45 10° ESE 20:00:44 12° E 20:02:43 10° ENE visible
17 May 3.5 21:38:08 19° SSW 21:41:54 80° WNW 21:47:07 10° NNE visible
17 May 6.2 23:22:44 10° WNW 23:24:46 12° NW 23:26:49 10° NNW visible
18 May 3.5 20:58:57 13° S 21:03:30 59° ESE 21:08:35 10° NNE visible
18 May 5.9 22:42:11 10° WSW 22:45:52 20° NW 22:49:37 10° N visible
